Location: Newark
(37.8333°N, 119.5000°W)
Time: 20:44:35
(UTC+00:00)

Tiros 1 despin weight - Pass Details

Date: 23 August 2019
Orbit: 593 x 643 km, 48.2° (Epoch: 19 October)

Event Time Altitude Azimuth Distance (km) Brightness Sun altitude
Rises 13:44:37 0° 298° (WNW) 2,894 ? 3.8°
Reaches altitude 10° 13:47:01 10° 291° (WNW) 1,993 ? 4.3°
Maximum altitude 13:51:18 41° 222° (SW) 919 ? 5.1°
Drops below altitude 10° 13:55:39 10° 152° (SSE) 2,010 ? 6.0°
Sets 13:58:05 0° 145° (SE) 2,921 ? 6.5°
